STARLINK-31794, 59803

Orbit data source: Space-Track

STARLINK-31794, 59803 is a payload satellite owned by SpaceX/Seattle (US) in LEO that was launched on Sat, 18 May 2024 UTC via an FALCON 9 launch vehicle from the Air Force Eastern Test Range (AFETR). Payload-class satellites include a variety of spacecraft equipped with specific instruments for various scientific and technological missions. These include communications satellites like Starlink; space stations such as the ISS; scientific satellites like the Hubble; Earth observation satellites from companies like Planet Labs, Umbra, and HawkEye 360; GPS; miniature CubeSats for education and research; and military/defense satellites.

Loading next visibility...
Identifier
59803, 2024-093X
Orbit
LEO
Country
Flag of USUS
Related business
Manufacturer
SpaceX/Seattle
Mission
Operational Commercial Communications
Bus & Motor
STARLINK V2M, Unknown motor
Mass
730 kg wet, ~700 kg dry
Launch date (UTC)
2024-05-18 (2 years ago)
Launch vehicle
FALCON 9
Launch site
Air Force Eastern Test Range (AFETR)
Object type
Payload
Rocket body
Debris
Shape & HBR
Box + 2 Pan, 17.7 m
Radar Cross Section
33.884 m², Large (>1 m²)

Expand to show TLE details & history
Last TLE update: 3 days ago

TLE from 3 days ago
0 STARLINK-31794
1 59803U 24093X   26170.57234563  .00000463  00000-0  26341-4 0  9997
2 59803  43.0041 353.8074 0001392 257.0422 103.0274 15.27577337118347
Epoch: 2026-06-19T13:44Z
TLE epoch observation values (Epoch: 2026-06-19T13:44:10.662Z)
Latitude
-0.00003°
Longitude
-120.03646°
Altitude
483.048 km
Speed
7.626 km/s
True Right ascension
23h 35m 13s
True Declination
0° 00' 00"
Sunlit
Object was in daylight at epoch
Visualization orbit readout
Latitude
Unknown
Longitude
Unknown
Altitude
Unknown
Speed
Unknown
Apparent Right ascension
Unknown
Apparent Declination
Unknown
Sunlit
N/A
Visualization observer readout
Local Sidereal Time
21:42:36
Azimuth
Unknown
Elevation
Unknown
Doppler factor
Unknown
Orbital elements
Apogee altitude
485.957 km
Perigee altitude
484.046 km
Semi-major axis
6,863.139 km
Eccentricity
0.00014
Inclination
43.0041°
RAAN
353.8074°
Arg. of periapsis
257.0422°
True anomaly
103.04294°
Mean anomaly
103.0274°
Eccentric anomaly
103.03517°
Mean motion
3.81732 °/min
Orbital period
94.31 mins
BSTAR
0.000026341
Loading maneuver chart data...
Computing Atmospheric mass density...
Loading historical data...
Loading historical data...
Loading historical data...
Loading historical data...
Loading historical data...
Loading historical data...
Loading historical data...

Documentation

Showing up to 5 results
|